{"data":{"norad_id":60371,"intl_designator":"2024-138S","name":"STARLINK-32263","alt_names":[],"object_type":"PAYLOAD","status":"ACTIVE","operator":null,"country":"US","launch_date":"2024-08-04","launch_site_code":"AFWTR","launch_vehicle":null,"mission":null,"orbit_class":"UNKNOWN","rcs_meters":null,"size_class":null,"mass_kg":null,"dimensions":null,"purposes":["comms"],"wikipedia_slug":null,"has_3d_model":false,"image_url":null,"decayed_at":null,"tle_current":{"epoch":"2026-05-24T15:54:00.156384Z","epoch_age_seconds":105031,"freshness":"FRESH","line1":"1 60371U 24138S   26144.66250181 -.00005229  00000+0 -16444-3 0  9992","line2":"2 60371  53.1614 316.4163 0000515  97.9314 262.1745 15.30225069102167","mean_motion":15.30225069,"eccentricity":5.15e-5,"inclination_deg":53.1614,"raan_deg":316.4163,"arg_perigee_deg":97.9314,"mean_anomaly_deg":262.1745,"bstar":-0.00016444,"rev_number":10216,"period_min":94.103804020218,"perigee_km":474.78727514915,"apogee_km":475.4931627027,"semimajor_km":6853.2772189259,"source":"CELESTRAK","updated_at":"2026-05-25T13:38:19.241371Z"}}}